Weather in Bolotnovo

Russia / Ivanovo Oblast     56°57′50″N   41°52′47″E
temp.,
°C
wind,
m/s
gust,
m/s
humid.,
%
clouds,
%
prec.,
mm/h
press.,
hPa
HPBL,
m
3 march, wed
wed300:00−5nw5138934 0.0 1005502
03:00−7nw6139250 0.0 1008543
06:00−7nw61292100 0.1 1009531
09:00−7nw61192100 0.1 1010533
12:00−4nw6108799 0.1 1009703
15:00−3wnw5109098 0.1 1009846
18:00−2w51294100 0.3 1006690
21:00−3w51391100 0.4 1005664
4 march, thu
thu400:00−3w51194100 0.2 1002655
03:00−3wsw71395100 0.6 1000747
06:00−1wsw61293100 0.3 996687
09:00−2wnw61381100 0.6 9951202
12:00−3wnw7118543 0.0 996933
15:00−3wnw598572 0.1 998906
18:00−4wnw4991100 0.1 999382
21:00−7nnw3496100 0.1 1000104
5 march, fri
fri500:00−11n239215 0.0 100132
03:00−13n239517 0.0 100325
06:00−14nnw23969 0.0 100448
09:00−12nnw25935 0.0 1006217
12:00−8nnw24790 0.0 1007464
15:00−6wnw238019 0.0 1008633
18:00−10wsw238628 0.0 100921
21:00−12wsw239114 0.0 101026
6 march, sat
sat600:00−11wsw349750 0.1 101181
03:00−12wnw359767 0.1 1012126
06:00−16nw359661 0.0 1013111
09:00−15nnw358940 0.0 1014245
12:00−11wnw368418 0.0 1014535
15:00−9wnw478226 0.0 1014876
18:00−11w3790100 0.1 1012196
21:00−13wsw3693100 0.1 1012134
7 march, sun
sun700:00−13sw499293 0.0 1010199
03:00−12ssw5119484 0.0 1007306
06:00−10ssw61485100 0.0 1003606
09:00−8ssw81492100 0.4 999935
12:00−5ssw81491100 0.5 9941082
15:00−4ssw81494100 1.8 9891101
18:00−3wsw61296100 2.5 987776
21:00−10w498085 3.6 988232